Ishigaki Airport
ROIG : now visible

Airfield :











YOU CAN JOIN US ON...

 
LOGIN :

Register | Disclaimer

   EN    FR    IT 

 









Legend :    VFR   Marginal VFR   IFR   Intensive IFR   Very Intensive IFR
Visi :
Ceiling :
>= 8 km
>= 3000ft
5 to 8 km
1000 to 3000 ft
1500m to 5 km
500 to 1000 ft
800 to 1500m
200 to 500 ft
< 800m
< 200 ft
Symbols :   Thunderstorms  Fog  Heavy snow  Heavy precipitations  Wind > 20 kt






- Airport Elevation : 93 ft
- IATA code : ISG


ROIG - Ishigaki

CURRENT METAR :
  • 220900Z 20012KT 9999 FEW011 BKN/// 31/28 Q1007

EXPIRED METARs :
  • 220800Z 20013KT 9999 FEW012 BKN/// 32/28 Q1007
  • 220700Z 20015KT 9999 FEW014 BKN/// 32/29 Q1007
  • 220600Z 20014KT 9999 FEW013 BKN/// 33/29 Q1007
  • 220500Z 21016KT 9999 FEW014 BKN/// 33/29 Q1008

TAF TAF ROIG
Valid from the 22 at 06:00 until the 23 at 12:00 UTC


220505Z 2206/2312 20012KT 9999 FEW010 SCT020
RJJJ FIR / Asia



MET'MAP, your aeronautical weather chart ! - Copyright ORBIFLY December 2007 - Disclaimer

ORBIFLY MET'MAP TEAM :

Programming & Development : Alexandra Zaïnal
Original concept : Baudouin d'Aumeries
Technical & hardware support : Manuel Goepfert
Assistance : Marc-Olivier Méhu




SOURCES & CREDITS :

   NOAA       Earth
Advisory